FW9580 Weather Reports


Display with metric or nautical units.
time (UTC)temp
F
wind
direction
speed
MPH
gust
MPH
rain 1hr
in
rain 24hr
in
rain mn
in
humidity
%
barometer
mb
20210921141502 61 207 7.0 10.0 0.00 0.01 0.01 81 1030.9
20210921141002 61 207 7.0 11.0 0.00 0.01 0.01 82 1031.0
20210921140502 61 219 7.0 10.0 0.00 0.01 0.01 82 1031.1
20210921140004 61 198 5.0 9.0 0.00 0.01 0.01 81 1030.9
20210921135502 61 202 5.0 10.0 0.00 0.01 0.01 82 1031.0
20210921135002 61 198 6.0 10.0 0.00 0.01 0.01 81 1030.9
20210921134502 60 209 6.0 9.0 0.00 0.01 0.01 83 1030.9
20210921134002 61 180 6.0 9.0 0.00 0.01 0.01 81 1030.9
20210921133502 60 176 6.0 9.0 0.00 0.01 0.01 83 1030.9
20210921133002 60 179 7.0 10.0 0.00 0.01 0.01 83 1030.9
20210921132502 60 198 8.0 10.0 0.00 0.01 0.01 83 1031.0
20210921132002 59 210 6.0 10.0 0.00 0.01 0.01 83 1030.9
20210921131502 59 230 5.0 10.0 0.00 0.01 0.01 84 1030.9
20210921131002 59 221 7.0 10.0 0.00 0.01 0.01 86 1031.0
20210921130501 59 243 5.0 10.0 0.00 0.01 0.01 85 1030.9
20210921130004 59 208 6.0 9.0 0.00 0.01 0.01 85 1030.8
20210921125501 59 212 6.0 9.0 0.00 0.01 0.01 84 1030.8
20210921125002 59 217 6.0 8.0 0.00 0.01 0.01 84 1030.8
20210921124502 59 195 5.0 8.0 0.00 0.01 0.01 86 1030.8
20210921124002 58 182 5.0 9.0 0.00 0.01 0.01 86 1030.7
20210921123501 58 219 6.0 9.0 0.00 0.01 0.01 85 1030.7
20210921123002 58 214 6.0 8.0 0.00 0.01 0.01 85 1030.7
20210921122502 58 196 5.0 8.0 0.00 0.01 0.01 86 1030.8
20210921122001 58 209 4.0 8.0 0.00 0.01 0.01 86 1030.6
20210921121501 57 207 5.0 8.0 0.00 0.01 0.01 87 1030.5
20210921121002 57 211 4.0 7.0 0.00 0.01 0.01 87 1030.5
20210921120502 57 194 4.0 7.0 0.00 0.01 0.01 87 1030.4
20210921120003 57 167 5.0 7.0 0.00 0.01 0.01 88 1030.5
20210921115500 56 192 5.0 7.0 0.00 0.01 0.01 88 1030.4
20210921115001 56 205 4.0 7.0 0.00 0.01 0.01 88 1030.4
20210921114501 56 188 4.0 7.0 0.00 0.01 0.01 89 1030.4
20210921114001 55 194 4.0 6.0 0.00 0.01 0.01 89 1030.4
20210921113501 55 192 3.0 6.0 0.00 0.01 0.01 90 1030.5
20210921113001 55 200 3.0 6.0 0.00 0.01 0.01 90 1030.5
20210921112501 55 192 4.0 6.0 0.00 0.01 0.01 90 1030.5
20210921112001 54 199 4.0 6.0 0.00 0.01 0.01 90 1030.6
20210921111501 54 194 3.0 6.0 0.00 0.01 0.01 90 1030.5
20210921111001 53 200 3.0 6.0 0.00 0.01 0.01 91 1030.4
20210921110501 53 196 4.0 5.0 0.01 0.01 0.01 90 1030.5
20210921110003 53 199 3.0 5.0 0.01 0.01 0.01 91 1030.4
20210921105500 52 189 3.0 5.0 0.01 0.01 0.01 90 1030.3
20210921105000 52 199 3.0 5.0 0.01 0.01 0.01 91 1030.4
20210921104501 51 184 4.0 5.0 0.01 0.01 0.01 90 1030.3
20210921104001 51 170 3.0 5.0 0.01 0.01 0.01 90 1030.3
20210921103507 51 169 4.0 5.0 0.01 0.01 0.01 90 1030.3
20210921103001 51 171 2.0 4.0 0.01 0.01 0.01 90 1030.2
20210921102501 51 182 2.0 4.0 0.01 0.01 0.01 90 1030.4
20210921102000 51 189 3.0 5.0 0.01 0.01 0.01 90 1030.3
20210921101501 51 195 3.0 5.0 0.01 0.01 0.01 90 1030.3
20210921101001 51 196 3.0 5.0 0.01 0.01 0.01 90 1030.3
20210921100501 51 197 4.0 5.0 0.00 0.00 0.00 90 1030.3
20210921100003 51 190 3.0 5.0 0.00 0.00 0.00 90 1030.3
20210921095501 51 202 3.0 5.0 0.00 0.00 0.00 90 1030.2
20210921095001 51 187 3.0 5.0 0.00 0.00 0.00 90 1030.2
20210921094501 51 182 3.0 6.0 0.00 0.00 0.00 90 1030.2
20210921094001 51 181 4.0 6.0 0.00 0.00 0.00 90 1030.1
20210921093500 51 182 4.0 6.0 0.00 0.00 0.00 90 1030.1
20210921093001 51 186 4.0 5.0 0.00 0.00 0.00 90 1030.2
20210921092501 51 174 4.0 5.0 0.00 0.00 0.00 90 1030.2
20210921092000 51 187 3.0 5.0 0.00 0.00 0.00 90 1030.2
20210921091501 51 187 4.0 5.0 0.00 0.00 0.00 90 1030.3
20210921091001 51 168 4.0 7.0 0.00 0.00 0.00 90 1030.1
20210921090501 51 176 4.0 7.0 0.00 0.00 0.00 90 1030.3
20210921090003 51 166 5.0 6.0 0.00 0.00 0.00 90 1030.2
20210921085501 51 184 4.0 5.0 0.00 0.00 0.00 90 1030.3
20210921085001 51 182 4.0 5.0 0.00 0.00 0.00 90 1030.3
20210921084502 51 196 4.0 5.0 0.00 0.00 0.00 90 1030.2
20210921084001 51 175 4.0 5.0 0.00 0.00 0.00 90 1030.2
20210921083501 51 171 3.0 6.0 0.00 0.00 0.00 90 1030.2
20210921083001 51 188 3.0 6.0 0.00 0.00 0.00 90 1030.2
20210921082501 51 199 4.0 6.0 0.00 0.00 0.00 90 1030.2
20210921081003 52 183 4.0 6.0 0.00 0.00 0.00 90 1030.0
20210921080500 52 181 4.0 6.0 0.00 0.00 0.00 90 1029.9
20210921080002 52 178 5.0 6.0 0.00 0.00 0.00 90 1029.9
20210921075501 52 168 5.0 6.0 0.00 0.00 0.00 89 1030.0
20210921075001 52 175 4.0 6.0 0.00 0.00 0.00 89 1029.9
20210921074500 52 171 5.0 7.0 0.00 0.00 0.00 89 1030.0
20210921074001 52 174 5.0 7.0 0.00 0.00 0.00 89 1030.0
20210921073500 52 167 5.0 7.0 0.00 0.00 0.00 90 1030.0
20210921073000 52 185 4.0 7.0 0.00 0.00 0.00 90 1030.1
20210921072500 52 186 5.0 8.0 0.00 0.00 0.00 90 1030.1
20210921072000 52 192 5.0 8.0 0.00 0.00 0.00 90 1030.1
20210921071501 51 192 4.0 6.0 0.00 0.00 0.00 90 1030.0
20210921071001 51 209 4.0 6.0 0.00 0.00 0.00 90 1030.0
20210921070501 51 192 4.0 6.0 0.00 0.00 0.00 90 1030.2
20210921070003 51 178 3.0 5.0 0.00 0.00 0.00 90 1030.1
20210921065501 51 175 3.0 5.0 0.00 0.00 0.00 89 1030.3
20210921065001 51 189 3.0 4.0 0.00 0.00 0.00 90 1030.3
20210921064501 51 190 3.0 5.0 0.00 0.00 0.00 89 1030.4
20210921064001 52 190 3.0 6.0 0.00 0.00 0.00 90 1030.5
20210921063500 52 188 4.0 7.0 0.00 0.00 0.00 90 1030.6
20210921063000 52 192 5.0 7.0 0.00 0.00 0.00 89 1030.6
20210921062501 51 186 4.0 6.0 0.00 0.00 0.00 89 1030.7
20210921062001 51 183 4.0 7.0 0.00 0.00 0.00 89 1030.7
20210921061501 52 191 4.0 7.0 0.00 0.00 0.00 89 1030.7
20210921061001 52 198 3.0 5.0 0.00 0.00 0.00 89 1030.8
20210921060500 52 188 3.0 6.0 0.00 0.00 0.00 89 1030.8
20210921060003 52 176 5.0 6.0 0.00 0.00 0.00 89 1030.8
20210921055500 52 171 5.0 6.0 0.00 0.00 0.00 89 1030.8
20210921055000 52 170 4.0 5.0 0.00 0.00 0.00 89 1030.7
20210921054500 52 173 4.0 5.0 0.00 0.00 0.00 89 1030.7
20210921054001 53 175 4.0 6.0 0.00 0.00 0.00 88 1030.7
20210921053500 53 178 4.0 6.0 0.00 0.00 0.00 89 1030.6
20210921053001 53 180 5.0 6.0 0.00 0.00 0.00 89 1030.7
20210921052500 53 175 5.0 7.0 0.00 0.00 0.00 89 1030.6
20210921052000 53 178 5.0 6.0 0.00 0.00 0.00 89 1030.7
20210921051500 53 180 5.0 8.0 0.00 0.00 0.00 89 1030.6
20210921051001 53 180 6.0 8.0 0.00 0.00 0.00 89 1030.6
20210921050500 52 182 5.0 7.0 0.00 0.00 0.00 89 1030.5
20210921045002 52 193 4.0 7.0 0.00 0.00 0.00 89 1030.4
20210921044502 52 193 3.0 6.0 0.00 0.00 0.00 89 1030.4
20210921044003 52 185 4.0 6.0 0.00 0.00 0.00 89 1030.6
20210921043502 52 176 4.0 6.0 0.00 0.00 0.00 89 1030.5
20210921043002 52 173 4.0 5.0 0.00 0.00 0.00 88 1030.4
20210921042502 53 179 4.0 7.0 0.00 0.00 0.00 88 1030.5
20210921042003 53 193 4.0 7.0 0.00 0.00 0.00 88 1030.4
20210921041502 53 178 5.0 8.0 0.00 0.00 0.00 89 1030.4
20210921040502 53 170 6.0 8.0 0.00 0.00 0.00 89 1030.4
20210921040004 53 175 5.0 8.0 0.00 0.00 0.00 89 1030.3
20210921035502 53 186 6.0 8.0 0.00 0.00 0.00 89 1030.3
20210921035002 54 193 6.0 8.0 0.00 0.00 0.00 89 1030.4
20210921034503 53 188 6.0 9.0 0.00 0.00 0.00 89 1030.4
20210921034002 53 182 5.0 8.0 0.00 0.00 0.00 90 1030.3
20210921033502 53 182 6.0 8.0 0.00 0.00 0.00 90 1030.2
20210921033003 53 190 6.0 8.0 0.00 0.00 0.00 90 1030.2
20210921032502 53 190 5.0 8.0 0.00 0.00 0.00 90 1030.2
20210921032002 53 186 5.0 6.0 0.00 0.00 0.00 90 1030.2
20210921031502 52 190 4.0 6.0 0.00 0.00 0.00 90 1030.1
20210921031003 52 177 4.0 6.0 0.00 0.00 0.00 90 1030.1
20210921030502 52 169 4.0 6.0 0.00 0.00 0.00 90 1030.2
20210921030005 52 178 5.0 6.0 0.00 0.00 0.00 89 1030.1
20210921025502 53 175 4.0 6.0 0.00 0.00 0.00 89 1029.9
20210921025002 53 173 4.0 5.0 0.00 0.00 0.00 89 1029.8
20210921024502 53 173 5.0 6.0 0.00 0.00 0.00 89 1029.9
20210921024002 53 177 4.0 6.0 0.00 0.00 0.00 89 1029.8
20210921023502 53 186 4.0 6.0 0.00 0.00 0.00 89 1029.9
20210921023003 53 198 4.0 7.0 0.00 0.00 0.00 92 1030.0
20210921022502 53 190 4.0 7.0 0.00 0.00 0.00 89 1029.9
20210921022002 53 180 4.0 6.0 0.00 0.00 0.00 89 1030.0
20210921021506 52 186 5.0 6.0 0.00 0.00 0.00 89 1030.0
20210921021003 52 194 4.0 6.0 0.00 0.00 0.00 89 1030.1
20210921020503 53 184 4.0 5.0 0.00 0.00 0.00 89 1030.1
20210921020004 52 172 4.0 5.0 0.00 0.00 0.00 89 1030.1
20210921015503 52 185 3.0 6.0 0.00 0.00 0.00 88 1030.2
20210921015002 52 192 4.0 6.0 0.00 0.00 0.00 88 1030.1
20210921014502 52 188 3.0 5.0 0.00 0.00 0.00 88 1030.2
20210921014002 52 187 3.0 5.0 0.00 0.00 0.00 88 1030.3
20210921013502 53 186 3.0 5.0 0.00 0.00 0.00 87 1030.2
20210921013002 53 197 4.0 5.0 0.00 0.00 0.00 87 1030.3
20210921012502 53 195 4.0 6.0 0.00 0.00 0.00 86 1030.3
20210921012002 54 186 4.0 6.0 0.00 0.00 0.00 86 1030.2
20210921011502 54 205 4.0 6.0 0.00 0.00 0.00 86 1030.2
20210921011002 54 198 4.0 7.0 0.00 0.00 0.00 86 1030.2
20210921010502 54 200 5.0 8.0 0.00 0.00 0.00 86 1030.2
20210921010004 54 202 4.0 8.0 0.00 0.00 0.00 86 1030.3
20210921005502 54 190 6.0 8.0 0.00 0.00 0.00 86 1030.3
20210921005002 54 211 5.0 7.0 0.00 0.00 0.00 86 1030.2
20210921004502 54 207 5.0 8.0 0.00 0.00 0.00 86 1030.3
20210921004002 54 196 5.0 9.0 0.00 0.00 0.00 86 1030.3
20210921003502 55 185 5.0 8.0 0.00 0.00 0.00 85 1030.3
20210921003008 55 179 5.0 8.0 0.00 0.00 0.00 84 1030.2
20210921002502 55 188 6.0 9.0 0.00 0.00 0.00 84 1030.3
20210921002002 55 186 6.0 10.0 0.00 0.00 0.00 84 1030.3
20210921001504 55 184 7.0 10.0 0.00 0.00 0.00 85 1030.2
20210921001003 55 185 5.0 9.0 0.00 0.00 0.00 84 1030.1
20210921000502 55 205 6.0 9.0 0.00 0.00 0.00 85 1030.0
20210921000005 55 193 5.0 9.0 0.00 0.00 0.00 84 1029.9
20210920235502 55 207 6.0 9.0 0.00 0.00 0.00 84 1029.8
20210920235002 55 194 6.0 9.0 0.00 0.00 0.00 84 1029.8
20210920234503 55 197 6.0 9.0 0.00 0.00 0.00 83 1029.7
20210920234003 55 196 6.0 9.0 0.00 0.00 0.00 83 1029.7
20210920233502 55 209 7.0 10.0 0.00 0.00 0.00 82 1029.6
20210920233002 55 188 7.0 10.0 0.00 0.00 0.00 82 1029.6
20210920232502 56 196 6.0 10.0 0.00 0.00 0.00 81 1029.5
20210920232002 56 192 7.0 10.0 0.00 0.00 0.00 81 1029.5
20210920231502 56 198 7.0 10.0 0.00 0.00 0.00 81 1029.4
20210920231002 56 210 8.0 10.0 0.00 0.00 0.00 81 1029.4
20210920230502 56 194 7.0 10.0 0.00 0.00 0.00 80 1029.3
20210920230005 56 193 7.0 10.0 0.00 0.00 0.00 80 1029.4
20210920225502 56 186 6.0 10.0 0.00 0.00 0.00 79 1029.3
20210920225009 56 219 6.0 10.0 0.00 0.00 0.00 78 1029.2
20210920224503 56 198 7.0 9.0 0.00 0.00 0.00 77 1029.2
20210920224002 56 184 7.0 9.0 0.00 0.00 0.00 76 1029.1
20210920223501 56 196 7.0 9.0 0.00 0.00 0.00 75 1029.1
20210920223002 56 170 6.0 9.0 0.00 0.00 0.00 75 1029.0
20210920222502 57 182 5.0 10.0 0.00 0.00 0.00 74 1029.1
20210920222002 57 190 8.0 10.0 0.00 0.00 0.00 74 1029.1
20210920221502 57 188 7.0 10.0 0.00 0.00 0.00 74 1029.1
20210920221003 58 173 7.0 10.0 0.00 0.00 0.00 75 1029.1
20210920220502 58 178 6.0 10.0 0.00 0.00 0.00 76 1029.0
20210920220023 58 205 5.0 12.0 0.00 0.00 0.00 75 1029.1
20210920215502 59 186 7.0 12.0 0.00 0.00 0.00 74 1029.0
20210920215002 59 188 6.0 8.0 0.00 0.00 0.00 74 1029.0
20210920214502 60 182 4.0 10.0 0.00 0.00 0.00 72 1028.9
20210920214003 60 207 7.0 10.0 0.00 0.00 0.00 71 1028.9
20210920213502 61 187 7.0 10.0 0.00 0.00 0.00 68 1028.9
20210920212502 61 214 5.0 10.0 0.00 0.00 0.00 64 1028.8
20210920212003 61 202 6.0 9.0 0.00 0.00 0.00 64 1028.9
20210920211502 61 206 6.0 9.0 0.00 0.00 0.00 64 1028.8
20210920211002 62 219 6.0 9.0 0.00 0.00 0.00 65 1028.9
20210920210502 62 196 6.0 10.0 0.00 0.00 0.00 66 1028.9
20210920210004 62 210 6.0 10.0 0.00 0.00 0.00 64 1028.8
20210920205503 62 200 8.0 11.0 0.00 0.00 0.00 64 1028.9
20210920205002 62 200 8.0 11.0 0.00 0.00 0.00 62 1028.9
20210920204502 62 221 6.0 13.0 0.00 0.00 0.00 62 1028.9
20210920204002 62 222 7.0 13.0 0.00 0.00 0.00 58 1028.9
20210920203503 63 170 8.0 12.0 0.00 0.00 0.00 57 1028.9
20210920203001 63 232 7.0 10.0 0.00 0.00 0.00 57 1028.8
20210920202502 64 196 7.0 12.0 0.00 0.00 0.00 55 1028.9
20210920202003 64 202 8.0 12.0 0.00 0.00 0.00 53 1028.8
20210920201502 64 194 8.0 11.0 0.00 0.00 0.00 52 1028.9
20210920201002 64 200 8.0 10.0 0.00 0.00 0.00 51 1028.9
20210920200501 64 182 6.0 10.0 0.00 0.00 0.00 53 1028.7
20210920200004 64 205 7.0 12.0 0.00 0.00 0.00 51 1028.8
20210920195502 64 174 9.0 12.0 0.00 0.00 0.00 51 1028.6
20210920195002 65 190 9.0 12.0 0.00 0.00 0.00 52 1028.6
20210920194502 65 171 7.0 10.0 0.00 0.00 0.00 52 1028.7
20210920194002 64 187 6.0 15.0 0.00 0.00 0.00 53 1028.7
20210920193502 64 203 8.0 15.0 0.00 0.00 0.00 52 1028.6
20210920193002 65 199 9.0 11.0 0.00 0.00 0.00 51 1028.7
20210920192501 65 207 7.0 12.0 0.00 0.00 0.00 49 1028.6
20210920192002 65 229 7.0 12.0 0.00 0.00 0.00 50 1028.7
20210920191502 65 211 7.0 11.0 0.00 0.00 0.00 48 1028.6
20210920191002 65 215 8.0 11.0 0.00 0.00 0.00 48 1028.7
20210920190502 65 207 8.0 10.0 0.00 0.00 0.00 49 1028.7
20210920190004 66 204 9.0 10.0 0.00 0.00 0.00 48 1028.7
20210920185503 66 240 7.0 11.0 0.00 0.00 0.00 48 1028.8
20210920185002 66 221 7.0 11.0 0.00 0.00 0.00 48 1028.8
20210920184501 67 207 9.0 11.0 0.00 0.00 0.00 49 1028.9
20210920184008 67 220 7.0 11.0 0.00 0.00 0.00 49 1028.8
20210920183502 67 214 7.0 11.0 0.00 0.00 0.00 48 1028.8
20210920183002 67 200 6.0 11.0 0.00 0.00 0.00 49 1028.8
20210920182502 67 202 6.0 9.0 0.00 0.00 0.00 50 1028.9
20210920182002 68 188 6.0 8.0 0.00 0.00 0.00 48 1028.9
20210920181501 67 180 6.0 9.0 0.00 0.00 0.00 49 1028.8
20210920181002 67 192 6.0 10.0 0.00 0.00 0.00 48 1028.7
20210920180501 67 180 7.0 10.0 0.00 0.00 0.00 49 1028.9
20210920180004 67 168 7.0 9.0 0.00 0.00 0.00 49 1028.9
20210920175501 67 200 6.0 10.0 0.00 0.00 0.00 48 1028.8
20210920175002 68 239 7.0 10.0 0.00 0.00 0.00 48 1028.8
20210920174501 67 182 7.0 9.0 0.00 0.00 0.00 48 1028.9
20210920174002 67 206 5.0 11.0 0.00 0.00 0.00 49 1028.8
20210920173501 67 187 8.0 11.0 0.00 0.00 0.00 47 1028.8
20210920173001 67 203 8.0 10.0 0.00 0.00 0.00 48 1028.8
20210920172502 67 186 8.0 10.0 0.00 0.00 0.00 47 1028.7
20210920172105 67 186 7.0 10.0 0.00 0.00 0.00 49 1028.7
20210920171502 66 221 6.0 11.0 0.00 0.00 0.00 49 1028.8
20210920171002 68 224 8.0 11.0 0.00 0.00 0.00 50 1028.7
20210920170502 67 202 6.0 12.0 0.00 0.00 0.00 50 1028.6
20210920170008 66 196 8.0 12.0 0.00 0.00 0.00 50 1028.7
20210920165602 66 188 7.0 12.0 0.00 0.00 0.00 51 1028.7
20210920164502 68 193 7.0 10.0 0.00 0.00 0.00 51 1028.7
20210920164002 66 179 7.0 10.0 0.00 0.00 0.00 50 1028.7
20210920163502 67 200 7.0 10.0 0.00 0.00 0.00 50 1028.7
20210920163009 68 192 5.0 8.0 0.00 0.00 0.00 46 1028.7
20210920162502 67 192 4.0 7.0 0.00 0.00 0.00 48 1028.6
20210920162002 67 219 4.0 7.0 0.00 0.00 0.00 46 1028.7
20210920161502 66 203 3.0 9.0 0.00 0.00 0.00 47 1028.8
20210920161004 68 196 6.0 9.0 0.00 0.00 0.00 46 1028.8
20210920160502 68 298 4.0 6.0 0.00 0.00 0.00 47 1028.7
20210920160004 67 281 4.0 5.0 0.00 0.00 0.00 45 1028.7
20210920155502 67 346 2.0 9.0 0.00 0.00 0.00 49 1028.7
20210920155005 66 302 3.0 9.0 0.00 0.00 0.00 47 1028.7
20210920154502 67 334 4.0 9.0 0.00 0.00 0.00 50 1028.7
20210920154003 66 350 6.0 9.0 0.00 0.00 0.00 47 1028.7
20210920153502 67 329 5.0 9.0 0.00 0.00 0.00 46 1028.7
20210920153002 66 321 5.0 9.0 0.00 0.00 0.00 48 1028.8
20210920152502 66 311 5.0 8.0 0.00 0.00 0.00 48 1028.8
20210920152002 65 338 3.0 6.0 0.00 0.00 0.00 48 1028.9
20210920151502 65 317 1.0 9.0 0.00 0.00 0.00 47 1028.9
20210920151004 65 298 4.0 9.0 0.00 0.00 0.00 47 1028.8
20210920150502 64 348 1.0 6.0 0.00 0.00 0.00 47 1028.9
20210920150004 64 328 4.0 7.0 0.00 0.00 0.00 46 1029.0
20210920145501 65 45 4.0 7.0 0.00 0.00 0.00 46 1028.9
20210920145002 64 37 4.0 8.0 0.00 0.00 0.00 50 1028.9
20210920144502 64 44 2.0 6.0 0.00 0.00 0.00 48 1029.0
20210920144002 63 63 4.0 8.0 0.00 0.00 0.00 47 1028.9
20210920143502 63 82 4.0 8.0 0.00 0.00 0.00 50 1028.9
20210920143002 63 311 2.0 6.0 0.00 0.00 0.00 50 1028.8
20210920142502 63 64 2.0 7.0 0.00 0.00 0.00 50 1028.9
20210920142002 63 55 5.0 7.0 0.00 0.00 0.00 50 1028.9